[Iaude] MPEC V132: 2023 VX3 [a=1.39,e=0.27,i=1.1,H=27.9]
    mpec at marsden.cfa.harvard.edu 
    mpec at marsden.cfa.harvard.edu
       
    Thu Nov  9 08:41:14 EST 2023
    
    
  
M.P.E.C. 2023-V132                             Issued 2023 November 9, 13:39 UT
     The Minor Planet Electronic Circulars contain information on unusual
         minor planets, routine data on comets and natural satellites,
         and occasional editorial announcements.  They are published
    on behalf of Division F of the International Astronomical Union by the
          Minor Planet Center, Smithsonian Astrophysical Observatory,
                          Cambridge, MA 02138, U.S.A.
			  
             Prepared using the Tamkin Foundation Computer Network
                              MPC at CFA.HARVARD.EDU
            URL https://www.minorplanetcenter.net/    ISSN 1523-6714
                                    2023 VX3                                    
Observations:
     K23V03X*1C2023 11 07.29736202 02 56.796+03 26 43.66         20.61GVEV132G96
     K23V03X 1C2023 11 07.30301502 03 01.019+03 27 02.05         21.14GVEV132G96
     K23V03X 1C2023 11 07.30868502 03 05.339+03 27 21.24         21.15GVEV132G96
     K23V03X KC2023 11 07.37712702 03 58.040+03 31 10.20         21.37GVEV132I52
     K23V03X KC2023 11 07.37981202 04 00.110+03 31 19.30         21.61GVEV132I52
     K23V03X KC2023 11 07.38250102 04 02.190+03 31 28.30         21.49GVEV132I52
     K23V03X KC2023 11 07.38517502 04 04.300+03 31 37.40         21.12GVEV132I52
     K23V03X KC2023 11 08.18314502 15 22.928+04 15 13.97         21.27GVEV132I52
     K23V03X KC2023 11 08.18565402 15 24.743+04 15 22.00         21.52GVEV132I52
     K23V03X KC2023 11 08.18816002 15 26.492+04 15 29.41         21.18GVEV132I52
     K23V03X KC2023 11 08.19064602 15 28.350+04 15 38.20         21.12GVEV132I52
     K23V03X KC2023 11 08.19462802 15 29.92 +04 15 40.3          21.1 GXEV132858
     K23V03X KC2023 11 08.21328202 15 43.30 +04 16 40.4          21.2 GXEV132858
     K23V03X KC2023 11 08.22794302 15 53.76 +04 17 26.7          20.8 GXEV132858
     K23V03X KC2023 11 09.17892802 28 16.176+05 05 45.85         20.98GVEV132I52
     K23V03X KC2023 11 09.18115302 28 17.638+05 05 53.16         20.92GVEV132I52
     K23V03X KC2023 11 09.18337502 28 19.157+05 05 59.32         21.02GVEV132I52
     K23V03X KC2023 11 09.18558802 28 20.615+05 06 05.98         21.14GVEV132I52
Observer details:
858 Tebbutt Observatory, Edgewood.  Observer F. B. Zoltowski.  0.51-m f/8.1
    Schmidt-Cassegrain + CCD.
G96 Mt. Lemmon Survey.  Observer D. Rankin.  Measurers E. C. Beshore, D. Fay,
    J. B. Fazekas, D. C. Fuls, A. R. Gibbs, A. D. Grauer, H. Groeller, J. K.
    Hogan, R. A. Kowalski, S. M. Larson, G. J. Leonard, D. Rankin, R. L.
    Seaman, F. C. Shelly, K. W. Wierzchos.  1.5-m reflector + 10K CCD.
I52 Steward Observatory, Mt. Lemmon Station.  Observer H. Groeller.  Measurers
    E. C. Beshore, D. Fay, J. B. Fazekas, D. C. Fuls, A. R. Gibbs, A. D.
    Grauer, H. Groeller, J. K. Hogan, R. A. Kowalski, S. M. Larson, G. J.
    Leonard, D. Rankin, R. L. Seaman, F. C. Shelly, K. W. Wierzchos.  1.0-m
    prime focus + CCD.
Orbital elements:
2023 VX3                                                 Earth MOID = 0.0165 AU
Epoch 2023 Sept. 13.0 TT = JDT 2460200.5                Veres                   
M 336.12946              (2000.0)            P               Q                  
n   0.60157513     Peri.  177.23346     +0.89183742     -0.45225569             
a   1.3897696      Node   209.66092     +0.41465800     +0.82575218             
e   0.2711450      Incl.    1.10340     +0.18078929     +0.33704321             
P   1.64           H   27.94          G   0.15           U   8                  
Residuals in seconds of arc
231107 G96 (1.2+  0.6+)   231107 I52  0.1+  0.3+    231108 858  1.3-  0.2-
231107 G96  0.1-  0.2-    231108 I52  0.5+  0.2+    231108 858  1.8-  0.6-
231107 G96  0.2-  0.1-    231108 I52  0.4+  0.1+    231109 I52  0.4+  0.3-
231107 I52  0.3+  0.2-    231108 I52  0.6-  0.5-    231109 I52  0.2-  0.4+
231107 I52  0.0   0.0     231108 I52  0.2+  0.2+    231109 I52  0.2+  0.1-
231107 I52  0.3-  0.1+    231108 858  0.7-  0.6-    231109 I52  0.3-  0.0
Ephemeris:
2023 VX3                 a,e,i = 1.39, 0.27, 1                   q = 1.0129
Date    TT    R. A. (2000) Decl.     Delta      r    Elong.  Phase     V
2023 10 10    20 27 03.2 -13 16 47   0.05637 1.0192   109.6    67.4    24.1
...
2023 10 25    22 24 57.8 -09 43 40   0.03298 1.0131   123.4    55.0    22.6
...
2023 11 02    00 36 22.2 -02 15 33   0.02888 1.0171   148.0    31.1    21.6
...
2023 11 08    02 12 46.1 +04 07 32   0.03336 1.0232   164.7    14.8    21.4
2023 11 09    02 25 52.6 +04 58 57   0.03467 1.0245   166.5    13.1    21.5
2023 11 10    02 38 01.8 +05 46 07   0.03612 1.0258   167.8    11.7    21.5
...
2023 11 16    03 33 09.0 +09 13 15   0.04695 1.0354   170.3     9.2    22.0
...
2023 11 24    04 14 06.2 +11 46 15   0.06543 1.0520   170.3     9.1    22.7
...
2023 12 09    04 47 10.9 +14 21 45   0.1091  1.0930   171.1     8.1    23.9
M. P. C. Staff               (C) Copyright 2023 MPC           M.P.E.C. 2023-V132
    
    
More information about the Iaude
mailing list